Torna al catalogo

QIANFAN-21

AttivoComunicazioniPO
NORAD 61554·PAYLOAD·🇨🇳 China

Lanciato Oct 15, 2024 da Taiyuan Satellite Launch Center

Loading…

Prossimi Passaggi (prossime 24 ore)

TLE

AggiornatoSource: Space-Track

Epoca: Sep 14, 2026, 13:57 UTC

1 61554U 24185C   26257.58191319  .00000473  00000-0  20385-3 0  9995
2 61554  88.9768  44.6767 0010796 172.9267 187.2080 14.22929466109191

Traccia QIANFAN-21 in tempo reale con AllMySat

Download on the App Store